MB7UUE Weather Reports


Display with metric or nautical units.
time (UTC)temp
F
wind
direction
speed
MPH
gust
MPH
rain 1hr
in
rain 24hr
in
rain mn
in
humidity
%
barometer
mb
20260507202758 54 98 0.0 12.0 0.00 0.00 0.00 74 1016.5
20260507200858 54 91 0.0 12.0 0.00 0.00 0.00 74 1016.4
20260507194958 54 111 0.0 12.0 0.00 0.00 0.00 72 1016.1
20260507193057 55 101 1.0 12.0 0.00 0.00 0.00 72 1016.0
20260507191158 55 112 0.0 12.0 0.00 0.00 0.00 72 1016.0
20260507185258 55 108 1.0 12.0 0.00 0.00 0.00 71 1016.0
20260507183359 55 111 1.0 12.0 0.00 0.00 0.00 65 1016.1
20260507181451 56 87 2.0 12.0 0.00 0.00 0.00 65 1016.0
20260507180638 56 114 3.0 12.0 0.00 0.00 0.00 65 1016.0
20260507174737 56 110 0.0 12.0 0.00 0.00 0.00 65 1015.9
20260507172838 57 124 0.0 12.0 0.00 0.00 0.00 60 1015.8
20260507170937 57 134 1.0 12.0 0.00 0.00 0.00 60 1015.7
20260507165038 58 184 8.0 12.0 0.00 0.00 0.00 58 1015.8
20260507163138 58 132 0.0 12.0 0.00 0.00 0.00 58 1015.9
20260507161239 58 133 3.0 12.0 0.00 0.00 0.00 57 1016.0
20260507155338 58 127 1.0 12.0 0.00 0.00 0.00 57 1016.0
20260507153438 58 129 0.0 12.0 0.00 0.00 0.00 55 1016.0
20260507151539 59 113 1.0 12.0 0.00 0.00 0.00 55 1015.9
20260507145638 59 135 6.0 12.0 0.00 0.00 0.00 55 1015.9
20260507143738 59 140 2.0 8.0 0.00 0.00 0.00 55 1015.9
20260507141839 59 131 2.0 8.0 0.00 0.00 0.00 54 1016.0
20260507135938 60 128 3.0 8.0 0.00 0.00 0.00 53 1016.1
20260507134038 60 129 1.0 7.0 0.00 0.00 0.00 53 1016.1
20260507132139 60 59 0.0 7.0 0.00 0.00 0.00 55 1016.2
20260507130238 59 137 3.0 7.0 0.00 0.00 0.00 59 1016.3
20260507124339 59 143 2.0 6.0 0.00 0.00 0.00 59 1016.3
20260507122439 58 137 0.0 0.0 0.00 0.00 0.00 59 1016.4
20260507120538 57 132 0.0 0.0 0.00 0.00 0.00 58 1016.4
20260507114638 57 132 0.0 0.0 0.00 0.00 0.00 59 1016.4
20260507112738 57 136 0.0 0.0 0.00 0.00 0.00 62 1016.5
20260507110839 56 125 0.0 0.0 0.00 0.00 0.00 62 1016.5
20260507104938 56 142 0.0 0.0 0.00 0.00 0.00 61 1016.6
20260507103038 56 136 0.0 0.0 0.00 0.00 0.00 61 1016.5
20260507101139 56 47 0.0 0.0 0.00 0.00 0.00 61 1016.6
20260507095238 56 137 0.0 0.0 0.00 0.00 0.00 63 1016.5
20260507093339 56 76 0.0 0.0 0.00 0.00 0.00 63 1016.5
20260507091438 55 130 0.0 0.0 0.00 0.00 0.00 64 1016.6
20260507085538 54 127 0.0 0.0 0.00 0.00 0.00 67 1016.6
20260507083639 54 93 0.0 0.0 0.00 0.00 0.00 68 1016.5
20260507081738 53 123 0.0 0.0 0.00 0.00 0.00 70 1016.5
20260507075839 53 94 0.0 0.0 0.00 0.00 0.00 71 1016.4
20260507073939 52 101 0.0 0.0 0.00 0.00 0.00 73 1016.4
20260507072038 51 273 0.0 0.0 0.00 0.00 0.00 74 1016.3
20260507070115 51 78 0.0 0.0 0.00 0.00 0.00 76 1016.2
20260507064214 50 66 0.0 0.0 0.00 0.00 0.00 76 1016.2
20260507062314 49 108 0.0 0.0 0.00 0.00 0.00 78 1016.1
20260507060415 49 79 0.0 0.0 0.00 0.00 0.00 79 1016.0
20260507054514 48 25 0.0 0.0 0.00 0.00 0.00 78 1015.9
20260507052615 48 34 0.0 0.0 0.00 0.00 0.00 78 1015.7
20260507050715 48 0 0.0 0.0 0.00 0.00 0.00 78 1015.7
20260507044816 48 0 0.0 0.0 0.00 0.00 0.00 78 1015.6
20260507042914 48 0 0.0 0.0 0.00 0.00 0.00 78 1015.5
20260507041015 48 0 0.0 0.0 0.00 0.00 0.00 78 1015.5
20260507035114 48 0 0.0 0.0 0.00 0.00 0.00 78 1015.4
20260507033214 48 0 0.0 0.0 0.00 0.00 0.00 78 1015.4
20260507031315 48 0 0.0 0.0 0.00 0.00 0.00 77 1015.4
20260507025414 49 0 0.0 0.0 0.00 0.00 0.00 77 1015.4
20260507023515 49 5 0.0 0.0 0.00 0.00 0.00 77 1015.3
20260507021615 49 61 0.0 0.0 0.00 0.00 0.00 76 1015.1
20260507015715 49 62 0.0 0.0 0.00 0.00 0.00 76 1015.0
20260507013814 49 76 0.0 0.0 0.00 0.00 0.00 75 1015.1
20260507011914 50 87 0.0 0.0 0.00 0.00 0.00 75 1015.0
20260507010015 50 88 0.0 0.0 0.00 0.00 0.00 75 1015.0
20260507004115 50 110 0.0 0.0 0.00 0.00 0.00 75 1015.0
20260507002214 51 76 0.0 0.0 0.00 0.00 0.00 75 1015.0
20260507000315 51 138 0.0 0.0 0.00 0.00 0.00 75 1015.0
20260506234415 51 61 0.0 0.0 0.00 0.00 0.00 75 1015.0
20260506232514 51 116 0.0 0.0 0.00 0.00 0.00 75 1015.0
20260506230614 52 89 0.0 0.0 0.00 0.00 0.00 75 1015.0
20260506224714 52 321 0.0 17.0 0.00 0.00 0.00 74 1014.9
20260506222814 52 320 0.0 17.0 0.00 0.00 0.00 73 1014.9
20260506220915 52 320 0.0 17.0 0.00 0.00 0.00 72 1014.8
20260506215014 52 320 0.0 17.0 0.00 0.00 0.00 71 1014.7
20260506213115 52 321 0.0 17.0 0.00 0.00 0.00 71 1014.7
20260506211214 52 316 0.0 17.0 0.00 0.00 0.00 70 1014.5
20260506205313 52 318 0.0 17.0 0.00 0.00 0.00 66 1014.5
20260506203413 53 311 0.0 17.0 0.00 0.00 0.00 63 1014.4